Regional Weather Roundup
Issued by NWS Cleveland, OH

Home | Current Version | Previous Version | Graphics & Text | Print | Product List | Glossary On
Versions: 1 2 3 4 5 6 7 8 9 10 11 12 13 14 15 16 17 18 19 20 21 22 23 24 25 26 27 28 29 30 31 32 33 34 35 36 37 38 39 40 41 42 43 44 45 46 47 48 49 50
000
ASUS41 KCLE 070010
RWRCLE
OHIO REGIONAL WEATHER ROUNDUP
NATIONAL WEATHER SERVICE CLEVELAND, OH
700 PM EST SAT FEB 06 2016

NOTE: "FAIR" INDICATES FEW OR NO CLOUDS BELOW 12,000 FEET WITH NO
SIGNIFICANT WEATHER AND/OR OBSTRUCTIONS TO VISIBILITY.

OHZ001>008-015>018-024>027-034-035-043-044-070100-
   NORTHWEST OHIO

CITY           SKY/WX    TMP DP  RH WIND       PRES   REMARKS
DEFIANCE       CLEAR     35  24  64 SW7       30.21R WCI  29
FINDLAY        CLEAR     33  22  63 SW5       30.21R WCI  29
TOLEDO EXPRESS CLEAR     33  22  63 SW5       30.20R WCI  29
TOLEDO EXEC    CLEAR     33  22  63 SW6       30.22R WCI  28
LIMA           CLEAR     34  22  61 SW7       30.21R WCI  28
$$

OHZ009>014-019>023-028>033-038-089-070100-
   NORTHEAST OHIO

CITY           SKY/WX    TMP DP  RH WIND       PRES   REMARKS
CLE-HOPKINS    CLEAR     34  20  56 SW6       30.23S WCI  29
CLE-LAKEFRONT  PTCLDY    35  26  69 CALM      30.21S
CUY CO. ARPT   PTCLDY    32  25  74 S6        30.21S WCI  26
LORAIN-ELYRIA  CLEAR     33  21  61 SW7       30.21S WCI  27
ASHTABULA      CLEAR     31  23  72 CALM      30.21R
AKRON-CANTON   CLEAR     31  16  54 SW6       30.21S WCI  25
WOOSTER        CLEAR     33  19  56 SW7       30.21F WCI  27
MANSFIELD      CLEAR     30  18  60 S8        30.20S WCI  22
YOUNGSTOWN     PTCLDY    33  16  49 CALM      30.20R
$$

OHZ042-051>053-060>062-070>072-077>081-070100-
  SOUTHWEST OHIO

CITY           SKY/WX    TMP DP  RH WIND       PRES   REMARKS
CINC-COVINGTON CLEAR     42  22  44 SW3       30.25R
CINC-LUNKEN    CLEAR     38  24  57 CALM      30.27S
HAMILTON       CLEAR     34  24  67 CALM      30.26S
DAYTON         CLEAR     34  22  61 SW6       30.24S WCI  29
WRIGHT-PAT AFB CLEAR     35  19  51 SW5       30.23F
DAYTON GENERAL CLEAR     38  19  46 CALM      30.23S
WILMINGTON     CLEAR     36  22  56 SW3       30.24S
$$

OHZ036-037-039>041-045>050-054>059-063>069-073>076-082>088-070100-
  CENTRAL AND SOUTHEAST OHIO

CITY           SKY/WX    TMP DP  RH WIND       PRES   REMARKS
COLUMBUS       CLEAR     36  15  42 S3        30.24S
OSU AIRPORT    CLEAR     37  17  44 S5        30.23S
BOLTON FIELD   CLEAR     35  20  53 S5        30.24F
RICKENBACK AFB CLEAR     36  20  52 SW5       30.24F
NEWARK         CLEAR     36  16  44 CALM      30.23F
MARION         CLEAR     30  18  60 S6        30.22S WCI  24
LANCASTER      CLEAR     35  19  52 CALM      30.25S
ZANESVILLE     CLEAR     39  14  36 W5        30.25R
NEW PHILLY     CLEAR     37  14  38 SW3       30.24R
$$



USA.gov is the U.S. government's official web portal to all federal, state and local government web resources and services.